This demonstration page uses our WeatherBlox Daily Observations layout. Learn more.

Left ArrowRight Arrow

41.12389, -100.76542

Hourly Observations for March 13, 2018

Temp ( °F °C ) Dew Point ( °F °C ) Humidity (%) Winds ( mph kmh ) Pressure ( in mb ) Visibility ( mi km ) Precip ( " mm )
12:53 am 00:53 Clear 25 -3.9 16 -8.9 69 69 E 6 9 30.40 1030 10 16 0.00 0.00
1:53 am 01:53 Clear 25 -3.9 17 -8.3 72 72 ENE 3 6 30.41 1030 10 16 0.00 0.00
2:53 am 02:53 Clear 22 -5.6 15 -9.4 75 75 NE 5 7 30.43 1031 10 16 0.00 0.00
3:53 am 03:53 Clear 22 -5.6 16 -8.9 78 78 Calm 30.43 1030 10 16 0.00 0.00
4:53 am 04:53 Clear 22 -5.6 15 -9.4 75 75 Calm 30.43 1031 10 16 0.00 0.00
5:53 am 05:53 Clear 19 -7.2 13 -10.6 77 77 Calm 30.45 1031 10 16 0.00 0.00
6:53 am 06:53 Clear 19 -7.2 14 -10 81 81 Calm 30.48 1032 10 16 0.00 0.00
7:53 am 07:53 Clear 18 -7.8 13 -10.6 81 81 Calm 30.50 1033 10 16 0.00 0.00
8:53 am 08:53 Sunny 22 -5.6 17 -8.3 82 82 Calm 30.51 1033 10 16 0.00 0.00
9:53 am 09:53 Sunny 28 -2.2 23 -5 81 81 Calm 30.51 1033 10 16 0.00 0.00
10:53 am 10:53 Sunny 35 1.7 18 -7.8 50 50 SE 6 9 30.50 1033 10 16 0.00 0.00
11:53 am 11:53 Sunny 39 3.9 20 -6.7 46 46 E 6 9 30.49 1032 10 16 0.00 0.00
12:53 pm 12:53 Sunny 44 6.7 20 -6.7 38 38 S 6 9 30.46 1032 10 16 0.00 0.00
1:53 pm 13:53 Sunny 49 9.4 20 -6.7 32 32 SE 6 9 30.42 1030 10 16 0.00 0.00
2:53 pm 14:53 Hazy 50 10 18 -7.8 28 28 S 7 11 30.38 1029 1 2 0.00 0.00
3:03 pm 15:03 Sunny 51 10.6 18 -7.8 27 27 SW 12 19 30.33 1027 10 16 0.00 0.00
3:53 pm 15:53 Sunny 52 11.1 18 -7.8 26 26 S 5 7 30.36 1028 10 16 0.00 0.00
4:53 pm 16:53 Sunny 54 12.2 18 -7.8 24 24 SSW 9 15 30.34 1027 10 16 0.00 0.00
5:53 pm 17:53 Sunny 53 11.7 17 -8.3 24 24 SW 6 9 30.33 1027 10 16 0.00 0.00
6:53 pm 18:53 Sunny 52 11.1 18 -7.8 26 26 S 9 15 30.32 1027 10 16 0.00 0.00
7:53 pm 19:53 Clear 45 7.2 18 -7.8 34 34 S 6 9 30.33 1027 10 16 0.00 0.00
8:53 pm 20:53 Clear 35 1.7 22 -5.6 59 59 SSE 5 7 30.33 1027 10 16 0.00 0.00
9:53 pm 21:53 Clear 30 -1.1 22 -5.6 72 72 Calm 30.33 1027 10 16 0.00 0.00
10:53 pm 22:53 Clear 29 -1.7 19 -7.2 66 66 Calm 30.31 1026 10 16 0.00 0.00
11:53 pm 23:53 Clear 32 0 17 -8.3 54 54 VRB 3 6 30.29 1026 10 16 0.00 0.00

Powered by AerisWeather